Location: Seattle
(47.6060°N, 122.3310°W)
Time: 16:45:40
(UTC-08:00)

ISS - Visible Passes

Search period start: 05 December 2016 00:00
Search period end: 15 December 2016 00:00
Orbit: 401 x 410 km, 51.6° (Epoch: 06 December)

Date Brightness Start Highest point End Pass type
(mag) Time Alt. Az. Time Alt. Az. Time Alt. Az.
05 Dec -3.4 17:42:47 10° WSW 17:46:05 85° SSE 17:47:34 30° ENE visible
05 Dec -0.1 19:19:38 10° WNW 19:20:14 14° WNW 19:20:14 14° WNW visible
06 Dec -2.9 16:50:57 10° SW 16:54:10 54° SSE 16:57:24 10° ENE visible
06 Dec -2.5 18:27:32 10° W 18:30:22 44° NW 18:30:22 44° NW visible
07 Dec -3.0 17:35:26 10° W 17:38:42 59° NNW 17:40:27 24° NE visible
07 Dec -0.3 19:12:24 10° WNW 19:13:08 15° WNW 19:13:08 15° WNW visible
08 Dec -2.4 18:20:18 10° WNW 18:23:12 38° NNW 18:23:12 38° NNW visible
09 Dec -2.6 17:28:09 10° W 17:31:20 43° N 17:33:16 20° NE visible
09 Dec -0.5 19:05:01 10° WNW 19:05:56 17° WNW 19:05:56 17° WNW visible
10 Dec -2.6 18:12:57 10° WNW 18:16:01 40° N 18:16:01 40° N visible
11 Dec -2.5 17:20:50 10° WNW 17:23:58 39° N 17:26:06 17° ENE visible
11 Dec -0.9 18:57:31 10° WNW 18:58:47 21° WNW 18:58:47 21° WNW visible
12 Dec -3.0 18:05:28 10° WNW 18:08:43 49° NNE 18:08:55 48° NNE visible
13 Dec -2.7 17:13:23 10° WNW 17:16:33 41° N 17:19:06 14° ENE visible
13 Dec -1.5 18:49:56 10° WNW 18:51:47 31° WNW 18:51:47 31° WNW visible
14 Dec -3.4 17:57:53 10° WNW 18:01:11 73° NNE 18:02:04 44° E visible
14 Dec 0.3 19:34:42 10° W 19:34:46 10° W 19:34:46 10° W visible
